map of DWC home
Great Circle Mapper logo
DWC - Airport
Location
City:  Jebel Ali, United Arab Emirates
Name:Al Maktoum International Airport
Old (Alt.):Dubai World Central International Airport
ICAO / IATA:OMDW / DWC

Details
Type:Airport (Aerodrome, Airfield)
Use:International (customs port of entry)
Latitude:2453'10"N (24.886111)
Longitude:5510'20"E (55.172222)
Runways:1
Longest:14764 ft (4500 m)

Time
Time Zone:UTC+4
Local Time:

Weather
METAR:OMDW 312300Z 06005KT CAVOK 22/17 Q1011 NOSIG
TAF:OMDW 312302Z 0100/0206 10007KT 8000 NSC
BECMG 0103/0105 18012KT PROB30
TEMPO 0104/0108 18020G30KT 3000 BLDU
BECMG 0110/0112 35012KT PROB30
TEMPO 0110/0114 VRB15G30KT 1500 BLDU FEW035CB
BECMG 0114/0116 09005KT

Related Locations
Nearby:
Farthest:GMR: 11799 mi / 18989 km
Mangareva [Totegegie], Gambier Islands, PF

Find:

   beyond  
but within

Other Information
Maps:
NOTAMs:
Links:
Sources:

  
flag of United Arab Emirates   

Sectional Chart

Flight Planning
at skyvector.com

Satellite Image

Google Maps Satellite View

 

Copyright © 2004-2014 Karl L. Swartz. All rights reserved.
The Great Circle Mapper name and logo are trademarks of the Great Circle Mapper.
All other trademarks mentioned herein belong to their respective owners.
Please see credits for attibutions and further copyright information.

  Follow gcmap on Facebook Follow gcmap on Twitter

hCard Microformat

Geo Microformat